Roxboro, NC

10:14 AM EDT on April 19, 2018 (GMT -0400)
Person County

Weather History for KTDF - October, 2010

Change the Weather History Date:

Wednesday, October 13, 2010

  Actual Average Record
Temperature  
Mean Temperature 66 °F -  
Max Temperature 73 °F 71 °F 84 °F (2000)
Min Temperature 60 °F 45 °F 25 °F (1988)
Cooling Degree Days 2    
Growing Degree Days 16 (Base 50)    
Moisture  
Dew Point 53 °F    
Average Humidity 62    
Maximum Humidity 82    
Minimum Humidity 47    
Precipitation  
Precipitation 0.00 in - - ()
Sea Level Pressure  
Sea Level Pressure 29.97 in    
Wind  
Wind Speed 2 mph (NNE)    
Max Wind Speed 8 mph    
Max Gust Speed -    
Visibility 10 miles    
Events      
Averages and records for this station are not official NWS values.
T = Trace of Precipitation, MM = Missing Value Source: NWS Daily Summary

Daily Weather History Graph

Daily Weather History Graph

Search for Another Location

Airport or City:

Astronomy

Oct. 13, 2010 Rise Set
Actual Time 7:21 AM EDT 6:42 PM EDT
Civil Twilight 6:55 AM EDT 7:08 PM EDT
Nautical Twilight 6:25 AM EDT 7:38 PM EDT
Astronomical Twilight 5:55 AM EDT 8:07 PM EDT
Moon 1:31 PM EDT (10/13) 11:27 PM EDT (10/13)
Length of Visible Light 12h 13m
Length of Day
11h 21m
Waxing Crescent, 38% of the Moon is Illuminated
Oct 13
Waxing Crescent
Oct 14
First Quarter
Oct 22
Full
Oct 30
Last Quarter
Nov 6
New

Hourly Weather History & Observations

Time (EDT) Temp. Dew Point Humidity Pressure Visibility Wind Dir Wind Speed Gust Speed Precip Events Conditions
12:01 AM 62.6 °F 55.4 °F 77% 29.90 in 10.0 mi Calm Calm - N/A   Overcast
12:21 AM 62.6 °F 57.2 °F 82% 29.91 in 10.0 mi Calm Calm - N/A   Overcast
12:41 AM 62.6 °F 57.2 °F 82% 29.91 in 10.0 mi Calm Calm - N/A   Overcast
1:01 AM 64.4 °F 55.4 °F 73% 29.92 in 10.0 mi Calm Calm - N/A   Overcast
1:21 AM 64.4 °F 55.4 °F 73% 29.92 in 10.0 mi Calm Calm - N/A   Overcast
1:41 AM 64.4 °F 55.4 °F 73% 29.92 in 10.0 mi West 4.6 mph - N/A   Overcast
2:01 AM 64.4 °F 55.4 °F 73% 29.92 in 10.0 mi Calm Calm - N/A   Overcast
2:21 AM 66.2 °F 55.4 °F 68% 29.92 in 10.0 mi NNW 3.5 mph - N/A   Overcast
2:41 AM 64.4 °F 55.4 °F 73% 29.92 in 10.0 mi Calm Calm - N/A   Overcast
3:02 AM 64.4 °F 55.4 °F 73% 29.93 in 10.0 mi NNE 4.6 mph - N/A   Scattered Clouds
3:21 AM 64.4 °F 55.4 °F 73% 29.92 in 10.0 mi Calm Calm - N/A   Scattered Clouds
3:41 AM 64.4 °F 55.4 °F 73% 29.92 in 10.0 mi Calm Calm - N/A   Scattered Clouds
4:01 AM 64.4 °F 55.4 °F 73% 29.92 in 10.0 mi Calm Calm - N/A   Scattered Clouds
4:21 AM 64.4 °F 55.4 °F 73% 29.93 in 10.0 mi Calm Calm - N/A   Scattered Clouds
4:41 AM 64.4 °F 55.4 °F 73% 29.93 in 10.0 mi Calm Calm - N/A   Scattered Clouds
5:01 AM 64.4 °F 55.4 °F 73% 29.93 in 10.0 mi North 3.5 mph - N/A   Clear
5:21 AM 64.4 °F 53.6 °F 68% 29.94 in 10.0 mi NNW 4.6 mph - N/A   Scattered Clouds
5:41 AM 64.4 °F 55.4 °F 73% 29.95 in 10.0 mi North 3.5 mph - N/A   Mostly Cloudy
6:01 AM 64.4 °F 53.6 °F 68% 29.95 in 10.0 mi NE 5.8 mph - N/A   Mostly Cloudy
6:21 AM 62.6 °F 55.4 °F 77% 29.94 in 10.0 mi ENE 6.9 mph - N/A   Mostly Cloudy
6:41 AM 62.6 °F 53.6 °F 72% 29.95 in 10.0 mi NNE 3.5 mph - N/A   Mostly Cloudy
7:01 AM 62.6 °F 51.8 °F 68% 29.96 in 10.0 mi Calm Calm - N/A   Scattered Clouds
7:21 AM 62.6 °F 51.8 °F 68% 29.97 in 10.0 mi North 5.8 mph - N/A   Mostly Cloudy
7:41 AM 62.6 °F 48.2 °F 59% 29.97 in 10.0 mi Calm Calm - N/A   Scattered Clouds
8:01 AM 62.6 °F 48.2 °F 59% 29.98 in 10.0 mi Calm Calm - N/A   Clear
8:21 AM 60.8 °F 48.2 °F 63% 29.98 in 10.0 mi North 3.5 mph - N/A   Clear
8:41 AM 62.6 °F 48.2 °F 59% 29.99 in 10.0 mi NNE 3.5 mph - N/A   Clear
9:01 AM 64.4 °F 48.2 °F 56% 30.00 in 10.0 mi NNE 6.9 mph - N/A   Clear
9:23 AM 64.4 °F 48.2 °F 56% 30.01 in 10.0 mi Calm Calm - N/A   Clear
9:41 AM 64.4 °F 48.2 °F 56% 30.02 in 10.0 mi North 5.8 mph - N/A   Clear
10:01 AM 66.2 °F 48.2 °F 52% 30.02 in 10.0 mi NNE 8.1 mph - N/A   Clear
10:21 AM 64.4 °F 48.2 °F 56% 30.02 in 10.0 mi North 6.9 mph - N/A   Clear
10:41 AM 66.2 °F 48.2 °F 52% 30.02 in 10.0 mi North 8.1 mph - N/A   Unknown
11:01 AM 66.2 °F 50.0 °F 56% 30.02 in 10.0 mi NNE 6.9 mph - N/A   Clear
11:21 AM 66.2 °F 51.8 °F 60% 30.02 in 10.0 mi NNE 8.1 mph - N/A   Clear
11:42 AM 68.0 °F 51.8 °F 56% 30.02 in 10.0 mi NNE 3.5 mph - N/A   Scattered Clouds
12:01 PM 68.0 °F 51.8 °F 56% 30.02 in 10.0 mi Calm Calm - N/A   Scattered Clouds
12:21 PM 69.8 °F 53.6 °F 56% 30.02 in 10.0 mi ENE 6.9 mph - N/A   Scattered Clouds
12:43 PM 71.6 °F 51.8 °F 50% 30.01 in 10.0 mi NNE 3.5 mph - N/A   Scattered Clouds
1:01 PM 69.8 °F 53.6 °F 56% 30.01 in 10.0 mi NNE 5.8 mph - N/A   Scattered Clouds
1:21 PM - - N/A% 30.00 in 10.0 mi North 3.5 mph - N/A   Clear
1:41 PM 71.6 °F 53.6 °F 53% 30.00 in 10.0 mi NNE 3.5 mph - N/A   Clear
2:01 PM 71.6 °F 53.6 °F 53% 29.99 in 10.0 mi NNW 3.5 mph - N/A   Clear
2:21 PM 71.6 °F 53.6 °F 53% 29.98 in 10.0 mi Calm Calm - N/A   Clear
2:41 PM 73.4 °F 51.8 °F 47% 29.97 in 10.0 mi NE 6.9 mph - N/A   Clear
3:04 PM 73.4 °F 51.8 °F 47% 29.97 in 10.0 mi Calm Calm - N/A   Scattered Clouds
3:21 PM 73.4 °F 51.8 °F 47% 29.97 in 10.0 mi Calm Calm - N/A   Clear
3:41 PM 73.4 °F 51.8 °F 47% 29.97 in 10.0 mi Calm Calm - N/A   Clear
4:02 PM 73.4 °F 51.8 °F 47% 29.96 in 10.0 mi Calm Calm - N/A   Clear
4:22 PM 73.4 °F 51.8 °F 47% 29.96 in 10.0 mi NNE 3.5 mph - N/A   Clear
4:42 PM 73.4 °F 53.6 °F 50% 29.96 in 10.0 mi NNW 3.5 mph - N/A   Clear
5:01 PM 73.4 °F 53.6 °F 50% 29.96 in 10.0 mi Calm Calm - N/A   Clear
5:21 PM 73.4 °F 53.6 °F 50% 29.95 in 10.0 mi Calm Calm - N/A   Clear
5:42 PM 71.6 °F 53.6 °F 53% 29.96 in 10.0 mi NNE 3.5 mph - N/A   Clear
6:01 PM 71.6 °F 53.6 °F 53% 29.96 in 10.0 mi Calm Calm - N/A   Clear
6:21 PM 69.8 °F 55.4 °F 60% 29.96 in 10.0 mi Calm Calm - N/A   Clear
6:41 PM 66.2 °F 55.4 °F 68% 29.97 in 10.0 mi Calm Calm - N/A   Clear
7:03 PM 66.2 °F 55.4 °F 68% 29.98 in 10.0 mi Calm Calm - N/A   Scattered Clouds
7:21 PM 64.4 °F - N/A% 29.98 in 10.0 mi Calm Calm - N/A   Scattered Clouds
7:41 PM 64.4 °F 57.2 °F 77% 29.98 in 10.0 mi Calm Calm - N/A   Clear
8:01 PM 64.4 °F 57.2 °F 77% 29.98 in 10.0 mi Calm Calm - N/A   Clear
8:21 PM 62.6 °F 57.2 °F 82% 29.98 in 10.0 mi Calm Calm - N/A   Clear
8:43 PM 62.6 °F 57.2 °F 82% 29.98 in 10.0 mi Calm Calm - N/A   Clear
9:01 PM 60.8 °F 55.4 °F 82% - 10.0 mi Calm Calm - N/A   Scattered Clouds
9:21 PM 60.8 °F 55.4 °F 82% 29.99 in 10.0 mi Calm Calm - N/A   Scattered Clouds
9:42 PM 60.8 °F 55.4 °F 82% 29.99 in 10.0 mi Calm Calm - N/A   Clear
10:01 PM 62.6 °F 55.4 °F 77% 29.99 in 10.0 mi Calm Calm - N/A   Scattered Clouds
10:21 PM 60.8 °F 55.4 °F 82% 29.99 in 10.0 mi Calm Calm - N/A   Scattered Clouds
10:42 PM 59.0 °F 55.4 °F 88% 29.99 in 10.0 mi Calm Calm - N/A   Scattered Clouds
11:01 PM 59.0 °F 55.4 °F 88% 29.99 in 10.0 mi Calm Calm - N/A   Scattered Clouds
11:22 PM 60.8 °F 55.4 °F 82% 29.98 in 10.0 mi Calm Calm - N/A   Clear
11:41 PM 60.8 °F 55.4 °F 82% 29.98 in 10.0 mi Calm Calm - N/A   Clear